Weather Roundup
Issued by NWS Springfield, MO

Home | Current Version | Previous Version | Text Only | Print | Product List | Glossary On
Versions: 1 2 3 4 5 6 7 8 9 10 11 12 13 14 15 16 17 18 19 20 21 22 23 24 25 26 27 28 29 30 31 32 33 34 35 36 37 38 39 40 41 42 43 44 45 46 47 48 49 50
000
NZUS99 KSGF 180359
HRRSGF

HOURLY WEATHER
NATIONAL WEATHER SERVICE SPRINGFIELD MO
1100 PM CDT FRI APR 17 2015

......SGF CWA......

CITY           SKY/WX    TMP DP  RH WIND       PRES   REMARKS
SPRINGFIELD    CLOUDY    67  59  75 S7        30.00S
JOPLIN         CLOUDY    69  60  73 SE3       29.97F
WEST PLAINS    MOCLDY    63  59  87 CALM      30.03S
ROLLA          PTCLDY    64  54  69 E7        30.00R
OSAGE BEACH    PTCLDY    70  54  56 S5        29.99S

......SURROUNDING SGF CWA......

CITY           SKY/WX    TMP DP  RH WIND       PRES   REMARKS
CHANUTE        CLOUDY    66  61  84 E3        29.97S
PARSONS        CLOUDY    66  63  90 CALM      29.97F
COFFEYVILLE    CLOUDY    63  61  93 NE6       29.95F
EMPORIA        CLOUDY    62  58  86 E7        29.96F
SILOAM SPRINGS CLOUDY    64  55  72 E3        29.99F
HARRISON AR    CLOUDY    62  60  93 SE7       30.01F
NEAR YELLVILLE CLOUDY    64 N/A N/A CALM      29.99F

......KANSAS AND MISSOURI......

CITY           SKY/WX    TMP DP  RH WIND       PRES   REMARKS
KANSAS CTY INT CLOUDY    63  58  83 E3        29.99S
DOWNTOWN KC    CLOUDY    66  60  81 CALM      29.97S
COLUMBIA       PTCLDY    67  55  65 E9        29.99S
SEDALIA        CLOUDY    68  55  63 SE5       29.99S
ST JOSEPH      CLOUDY    63  56  78 CALM      29.98S
ST LOUIS       PTCLDY    66  55  67 E6        30.02S
SPIRIT OF STL  CLEAR     62  56  80 CALM      30.00F
KIRKSVILLE     PTCLDY    65  55  70 SE5       30.01S
WICHITA        CLOUDY    65  58  78 CALM      29.95F
TOPEKA         CLOUDY    62  59  90 CALM      29.97F
OLATHE         CLOUDY    67  58  72 CALM      29.98S

......TENNESSEE......

CITY           SKY/WX    TMP DP  RH WIND       PRES   REMARKS
MEMPHIS        PTCLDY    66  61  84 E7        30.01F
NASHVILLE      CLEAR     61  60  97 CALM      30.02F

......ARKANSAS.......

CITY           SKY/WX    TMP DP  RH WIND       PRES   REMARKS
FAYETTEVILLE   CLOUDY    62  60  93 CALM      29.98F
FT SMITH       CLOUDY    70  62  76 NE5       29.96R
LITTLE ROCK    CLOUDY    68  62  81 E6        30.00R

......OKLAHOMA.......

CITY           SKY/WX    TMP DP  RH WIND       PRES   REMARKS
TULSA          CLOUDY    66  62  87 SE6       29.94R
PONCA CITY     CLOUDY    63  59  87 CALM      29.94S
MCALESTER      CLOUDY    66  63  90 CALM      29.96S
OKLAHOMA CITY  CLOUDY    64  58  80 W5        29.95S

......IOWA............

CITY           SKY/WX    TMP DP  RH WIND       PRES   REMARKS
DES MOINES     MOCLDY    69  52  54 CALM      30.00F
QUAD CITIES    CLEAR     57  48  72 CALM      30.00S

......ILLINOIS........

CITY           SKY/WX    TMP DP  RH WIND       PRES   REMARKS
QUINCY         PTCLDY    65  52  62 SE6       30.01S
CHICAGO        MOCLDY    63  46  54 CALM      30.00F



USA.gov is the U.S. government's official web portal to all federal, state and local government web resources and services.